Regional Weather Roundup
Issued by NWS

Home | Current Version | Previous Version | Text Only | Print | Product List | Glossary Off
Versions: 1 2 3 4 5 6 7 8 9 10 11 12 13 14 15 16 17 18 19 20 21 22 23 24 25 26 27 28 29 30 31 32 33 34 35 36 37 38 39 40 41 42 43 44 45 46 47 48 49 50

000
ASUS43 KFSD 171610
RWRSD

WEATHER ROUNDUP FOR SOUTH DAKOTA
NATIONAL WEATHER SERVICE SIOUX FALLS SD
1000 AM CST WED JAN 17 2018

NOTE: "FAIR" INDICATES FEW OR NO CLOUDS BELOW 12,000 FEET WITH NO
SIGNIFICANT WEATHER AND/OR OBSTRUCTIONS TO VISIBILITY.


SDZ001>005-009-010-012>017-171700-
NORTHWEST AND NORTH CENTRAL SOUTH DAKOTA

CITY           SKY/WX    TMP DP  RH WIND       PRES   REMARKS
BUFFALO          N/A     25  15  66 W9        30.14R WCI  15
FAITH            N/A     26  15  63 W13       30.21R WCI  15
MOBRIDGE       SUNNY     11   3  70 SE3       30.16R
$$

SDZ012>016-024>037-041>051-057-063-072>074-171700-
SOUTHWEST AND SOUTH CENTRAL SOUTH DAKOTA

CITY           SKY/WX    TMP DP  RH WIND       PRES   REMARKS
RAPID CTY ARPT SUNNY     36  19  50 NW14      30.24R
PIERRE         SUNNY     12   6  77 W8        30.23R WCI   0
CUSTER         MOSUNNY   37  -8  14 NE7       30.21R
ELLSWORTH AFB  SUNNY     38  21  50 NW15      30.24R
PHILIP         SUNNY     16   9  74 W10       30.26R WCI   4
PINE RIDGE     SUNNY     19   8  62 CALM      30.26R
SPEARFISH        N/A     32  16  51 W12       30.27R WCI  23
WINNER         FAIR      23  10  57 SW8       30.26R WCI  14
$$

SDZ004>011-016>023-039-040-171700-
NORTHEAST SOUTH DAKOTA

CITY           SKY/WX    TMP DP  RH WIND       PRES   REMARKS
ABERDEEN       SUNNY     10   3  73 S14       30.20F WCI  -6
WATERTOWN      CLOUDY    12   4  70 S13       30.19F WCI  -3
BROOKINGS      CLOUDY    11   3  70 S10       30.26F WCI  -3
SISSETON         N/A     23   6  48 SW22G28   30.09F WCI   8
$$

SDZ017-020-022-023-036>040-048>070-171700-
SOUTHEAST SOUTH DAKOTA

CITY           SKY/WX    TMP DP  RH WIND       PRES   REMARKS
SIOUX FALLS    CLOUDY    14   4  64 SW10      30.32R WCI   1
HURON          SUNNY     13   4  67 S10       30.25F WCI   0
CHAMBERLAIN    SUNNY     21  10  64 SW6       30.25S WCI  13
MITCHELL       SUNNY     15   4  61 S7        30.31R WCI   5
YANKTON        CLOUDY    18   6  59 S8        30.35R WCI   8
$$

ABBREVIATIONS USED IN REMARKS
   TC - TEMPERATURE IN CELSIUS
  WCI - WIND CHILL INDEX
   HX - HEAT INDEX
  VSB - VISIBILITY




USA.gov is the U.S. government's official web portal to all federal, state and local government web resources and services.